Location: Unspecified
(0.0000°N, 0.0000°E)
Time: 02:21:47
(UTC+00:00)

Transit 2A Rocket - All Passes

Search period start: 26 May 2019 00:00
Search period end: 05 June 2019 00:00
Orbit: 585 x 918 km, 66.7° (Epoch: 25 May)

Date Brightness Start Highest point End Pass type
(mag) Time Alt. Az. Time Alt. Az. Time Alt. Az.
26 May - 03:17:13 10° NNW 03:21:58 83° WSW 03:26:22 10° SSE night (unlit)
26 May - 14:04:49 10° SSE 14:08:35 18° ESE 14:12:30 10° ENE daylight
26 May - 15:45:49 10° SW 15:50:53 35° WNW 15:56:16 10° N daylight
27 May - 02:35:03 10° N 02:39:31 40° ENE 02:43:40 10° SE night (unlit)
27 May - 15:02:49 10° SSW 15:08:23 70° WNW 15:14:22 10° NNE daylight
28 May - 01:53:48 10° NNE 01:57:00 18° ENE 02:00:02 10° ESE night (unlit)
28 May - 03:35:55 10° WNW 03:39:16 20° WSW 03:42:28 10° SSW night (unlit)
28 May - 14:20:27 10° S 14:25:57 59° ESE 14:31:50 10° NNE daylight
28 May - 16:07:26 10° WNW 16:08:32 10° WNW 16:09:38 10° WNW daylight
29 May - 02:52:24 10° NW 02:56:53 46° WSW 03:01:05 10° S night (unlit)
29 May - 13:38:45 10° SSE 13:43:33 29° ESE 13:48:37 10° NE daylight
29 May - 15:21:35 10° WSW 15:25:57 22° WNW 15:30:29 10° NNW daylight
30 May - 02:09:46 10° NNW 02:14:29 73° ENE 02:18:51 10° SSE night (unlit)
30 May - 12:58:11 10° SE 13:01:09 14° ESE 13:04:12 10° ENE daylight
30 May - 14:38:04 10° SW 14:43:25 44° WNW 14:49:06 10° N daylight
31 May - 01:27:52 10° N 01:32:00 30° ENE 01:35:53 10° SE night (unlit)
31 May - 03:12:56 10° W 03:14:11 11° WSW 03:15:24 10° SW night (unlit)
31 May - 13:55:18 10° SSW 14:00:56 87° WNW 14:06:58 10° NNE daylight
01 Jun - 00:47:13 10° NE 00:49:28 13° ENE 00:51:38 10° E night (unlit)
01 Jun - 02:27:58 10° NW 02:31:47 26° WSW 02:35:26 10° SSW night (unlit)
01 Jun - 13:13:08 10° S 13:18:31 47° ESE 13:24:14 10° NE daylight
01 Jun - 14:58:06 10° W 15:01:01 14° WNW 15:04:00 10° NW daylight
02 Jun - 01:44:48 10° NNW 01:49:24 62° WSW 01:53:43 10° S night (unlit)
02 Jun - 12:31:42 10° SSE 12:36:07 23° ESE 12:40:43 10° ENE daylight
02 Jun - 14:13:37 10° SW 14:18:29 28° WNW 14:23:32 10° NNW daylight
03 Jun - 01:02:25 10° N 01:06:59 53° ENE 01:11:14 10° SSE night (unlit)
03 Jun - 11:52:10 10° SE 11:53:41 11° ESE 11:55:14 10° E daylight
03 Jun - 13:30:24 10° SSW 13:35:57 56° WNW 13:41:51 10° N daylight
04 Jun - 00:20:49 10° NNE 00:24:29 23° ENE 00:27:57 10° ESE night (unlit)
04 Jun - 02:04:09 10° WNW 02:06:42 15° WSW 02:09:11 10° SW night (unlit)
04 Jun - 12:47:50 10° SSW 12:53:29 75° ESE 12:59:31 10° NNE daylight
